Overview Statistics Trail Chart Weather Telemetry Raw packets
 

This is the latest recevied weather packets stored in our database for station/object NT9G. If no packets are shown the sender has not sent any weather packets the latest 10 day(s).

<< 88 89 90 91 92 93 94 >>
Time Temp. Humidity Pressure Rain* Wind** Luminosity Snow
1777148800 22.78° C 31% 1013.9 hPa 0 mm - - -
1777148500 22.78° C 34% 1013.9 hPa 0 mm - - -
1777148200 23.33° C 33% 1013.9 hPa 0 mm - - -
1777147899 22.78° C 32% 1014 hPa 0 mm - - -
1777147599 23.33° C 33% 1014.1 hPa 0 mm - - -
1777147299 22.78° C 32% 1014.1 hPa 0 mm - - -
1777146999 23.33° C 33% 1014.2 hPa 0 mm - - -
1777146398 23.89° C 32% 1014.2 hPa 0 mm - - -
1777146098 23.89° C 32% 1014.3 hPa 0 mm - - -
1777145797 23.89° C 33% 1014.3 hPa 0 mm - - -
1777145497 23.33° C 37% 1014.3 hPa 0 mm - - -
1777145197 22.78° C 35% 1014.4 hPa 0 mm - - -
1777144897 22.22° C 35% 1014.4 hPa 0 mm - - -
1777144296 22.78° C 35% 1014.4 hPa 0 mm - - -
1777143996 22.22° C 40% 1014.4 hPa 0 mm - - -
1777143695 21.67° C 39% 1014.4 hPa 0 mm - - -
1777143395 21.11° C 39% 1014.3 hPa 0 mm - - -
1777143095 21.11° C 39% 1014.3 hPa 0 mm - - -
1777142795 20.56° C 37% 1014.3 hPa 0 mm - - -
1777142494 21.11° C 42% 1014.3 hPa 0 mm - - -
1777142194 20.56° C 40% 1014.4 hPa 0 mm - - -
1777141894 20° C 47% 1014.3 hPa 0 mm - - -
1777141593 20° C 44% 1014.4 hPa 0 mm - - -
1777141293 19.44° C 44% 1014.5 hPa 0 mm - - -
1777140993 19.44° C 48% 1014.6 hPa 0 mm - - -

* Rain since midnight (hover to see other rain measurements)
** Current wind speed in m/s (hover to see current wind gust speed)